Grizzly Air Cargo 5120


PASI
Sitka Rocky Gutierrez Airport
Sitka, Alaska, US
PAJN
Juneau International Airport
Juneau, Alaska, US

Activity Log

Date Flight Route Aircraft Duration
07/29/2019 GRZ514 HAWRD5 TNAKY B722 0h 28m
07/01/2019 GRZ514 HAWRD5 TNAKY B722 0h 35m
03/21/2019 GRZ514 HAWRD5 TNAKY B722 0h 40m

Route Details

Aircraft Information
Primary: Boeing 727-200F
Backup: Boeing 737-800BCF
Route Data
Distance: 97nm
Sched. Duration: 0h 35m
Avg. Duration: 0h 34m (-0m)
Times Flown: 3
Recm'd Route: HAWRD5 TNAKY
Planned Altitude: 16,000ft
Origin Wx: PASI 311153Z 09003KT 10SM FEW015 BKN042 OVC070 09/06 A2977 RMK AO2 SLP080 70005 T00890061 10106 20089 58001
Dest. Wx: PAJN 311153Z 10005KT 10SM -RA BKN027 BKN039 OVC050 09/08 A2978 RMK AO2 SLP085 P0000 60008 70010 T00940083 10122 20094 57000
Notes:

Financial History
Total Freight: 114,102lbs
Average Load: 38,034lbs/flt
Fuel Used: 13,569lbs
Avg. Fuel Used: 4,523lbs/flt
Fuel Expense: $15,333
Avg. Fuel Expense: $5,111
Avg. Fuel Cost: $1.13/lbs
Total Gross Income: $162,025
Pilot Pay: $687
Total Expenses: $17,655
Total Revenue: $128,623
Average Revenue: $54,008.28